GW2644 Weather Reports


Display with metric or nautical units.
time (UTC)temp
F
wind
direction
speed
MPH
gust
MPH
rain 1hr
in
rain 24hr
in
rain mn
in
humidity
%
barometer
mb
20260508234739 75 283 1.0 5.0 0.00 0.00 0.00 65 1017.1
20260508234235 73 233 2.0 3.0 0.00 0.00 0.00 65 1017.0
20260508233735 73 197 3.0 4.0 0.00 0.00 0.00 64 1016.9
20260508233234 74 209 0.0 4.0 0.00 0.00 0.00 65 1017.0
20260508232730 74 252 2.0 4.0 0.00 0.00 0.00 63 1017.2
20260508232226 74 216 2.0 5.0 0.00 0.00 0.00 64 1017.1
20260508231725 74 212 0.0 4.0 0.00 0.00 0.00 64 1017.0
20260508231221 73 227 3.0 6.0 0.00 0.00 0.00 65 1017.3
20260508230718 74 123 0.0 2.0 0.00 0.00 0.00 64 1017.4
20260508230214 74 213 0.0 6.0 0.00 0.00 0.00 63 1017.3
20260508225712 75 225 0.0 3.0 0.00 0.00 0.00 62 1017.1
20260508225208 75 191 0.0 4.0 0.00 0.00 0.00 64 1017.4
20260508224706 74 262 2.0 4.0 0.00 0.00 0.00 63 1017.5
20260508224204 73 196 2.0 3.0 0.00 0.00 0.00 64 1017.7
20260508223701 75 233 3.0 4.0 0.00 0.00 0.00 65 1017.6
20260508223158 74 245 2.0 5.0 0.00 0.00 0.00 65 1017.6
20260508222655 73 276 3.0 6.0 0.00 0.00 0.00 65 1017.9
20260508222153 74 235 0.0 7.0 0.00 0.00 0.00 66 1017.9
20260508221649 73 218 3.0 4.0 0.00 0.00 0.00 65 1017.9
20260508221144 73 244 4.0 6.0 0.00 0.00 0.00 65 1017.9
20260508220641 74 227 0.0 5.0 0.00 0.00 0.00 65 1018.1
20260508220138 73 201 3.0 4.0 0.00 0.00 0.00 66 1018.1
20260508215634 72 276 0.0 4.0 0.00 0.00 0.00 66 1018.1
20260508215131 73 209 1.0 6.0 0.00 0.00 0.00 66 1018.2
20260508214628 74 229 2.0 4.0 0.00 0.00 0.00 65 1018.3
20260508214126 73 255 1.0 6.0 0.00 0.00 0.00 64 1018.4
20260508213622 74 202 3.0 6.0 0.00 0.00 0.00 65 1018.2
20260508213118 73 215 1.0 6.0 0.00 0.00 0.00 66 1018.3
20260508212615 73 250 4.0 5.0 0.00 0.00 0.00 65 1018.4
20260508212111 73 294 1.0 5.0 0.00 0.00 0.00 66 1018.4
20260508211606 72 326 2.0 5.0 0.00 0.00 0.00 67 1018.4
20260508211103 73 252 2.0 4.0 0.00 0.00 0.00 66 1018.6
20260508210600 71 213 0.0 5.0 0.00 0.00 0.00 70 1018.6
20260508210057 71 217 2.0 4.0 0.00 0.00 0.00 69 1018.6
20260508205554 71 246 3.0 4.0 0.00 0.00 0.00 69 1018.7
20260508205050 70 253 0.0 4.0 0.00 0.00 0.00 69 1018.8
20260508204547 70 217 0.0 5.0 0.00 0.00 0.00 71 1018.7
20260508204043 71 263 3.0 8.0 0.00 0.00 0.00 70 1018.8
20260508203539 72 212 2.0 4.0 0.00 0.00 0.00 68 1018.7
20260508203035 70 257 0.0 4.0 0.00 0.00 0.00 69 1019.1
20260508202532 72 125 0.0 5.0 0.00 0.00 0.00 69 1019.0
20260508202029 71 214 3.0 3.0 0.00 0.00 0.00 70 1018.8
20260508201526 69 239 2.0 5.0 0.00 0.00 0.00 70 1019.0
20260508201022 71 280 2.0 7.0 0.00 0.00 0.00 70 1019.1
20260508200520 70 270 0.0 5.0 0.00 0.00 0.00 69 1019.3
20260508200015 69 270 0.0 5.0 0.00 0.00 0.00 72 1019.3
20260508195512 69 253 0.0 3.0 0.00 0.00 0.00 71 1019.3
20260508195008 68 234 0.0 3.0 0.00 0.00 0.00 72 1019.5
20260508194506 68 276 0.0 4.0 0.00 0.00 0.00 75 1019.5
20260508194003 68 277 1.0 5.0 0.00 0.00 0.00 73 1019.4
20260508193459 69 236 4.0 4.0 0.00 0.00 0.00 72 1019.4
20260508192956 68 106 1.0 3.0 0.00 0.00 0.00 73 1019.4
20260508192452 67 306 0.0 2.0 0.00 0.00 0.00 74 1019.7
20260508191949 67 213 2.0 5.0 0.00 0.00 0.00 74 1019.6
20260508191447 67 250 2.0 5.0 0.00 0.00 0.00 75 1019.7
20260508190943 67 276 0.0 2.0 0.00 0.00 0.00 76 1019.7
20260508190441 67 262 0.0 4.0 0.00 0.00 0.00 75 1019.7
20260508185936 67 213 0.0 3.0 0.00 0.00 0.00 75 1019.7
20260508185434 66 354 0.0 2.0 0.00 0.00 0.00 77 1020.1
20260508184931 65 337 0.0 2.0 0.00 0.00 0.00 76 1019.9
20260508184429 66 251 2.0 2.0 0.00 0.00 0.00 77 1020.1
20260508183925 65 220 0.0 3.0 0.00 0.00 0.00 78 1020.3
20260508183422 66 251 0.0 2.0 0.00 0.00 0.00 78 1020.3
20260508182917 66 140 2.0 2.0 0.00 0.00 0.00 78 1020.3
20260508182415 65 165 0.0 0.0 0.00 0.00 0.00 79 1020.2
20260508181909 65 90 0.0 2.0 0.00 0.00 0.00 79 1020.1
20260508181407 65 90 0.0 0.0 0.00 0.00 0.00 80 1020.1
20260508180904 65 261 0.0 1.0 0.00 0.00 0.00 81 1020.5
20260508180401 64 98 0.0 3.0 0.00 0.00 0.00 81 1020.4
20260508175857 64 282 0.0 2.0 0.00 0.00 0.00 82 1020.5
20260508175353 65 282 0.0 3.0 0.00 0.00 0.00 81 1020.4
20260508174852 64 270 0.0 2.0 0.00 0.00 0.00 81 1020.4
20260508174349 65 8 0.0 0.0 0.00 0.00 0.00 82 1020.7
20260508173845 65 328 2.0 2.0 0.00 0.00 0.00 82 1020.5
20260508173342 64 233 0.0 2.0 0.00 0.00 0.00 82 1020.5
20260508172837 64 255 0.0 2.0 0.00 0.00 0.00 83 1020.6
20260508172335 64 246 0.0 2.0 0.00 0.00 0.00 83 1020.7
20260508171832 64 228 0.0 3.0 0.00 0.00 0.00 83 1020.5
20260508171328 64 278 0.0 0.0 0.00 0.00 0.00 83 1020.6
20260508170825 64 278 0.0 0.0 0.00 0.00 0.00 83 1020.5
20260508170323 64 278 0.0 2.0 0.00 0.00 0.00 83 1020.4
20260508165819 64 264 0.0 2.0 0.00 0.00 0.00 83 1020.6
20260508165317 64 90 0.0 0.0 0.00 0.00 0.00 84 1020.6
20260508164812 63 90 0.0 0.0 0.00 0.00 0.00 85 1020.6
20260508164309 63 60 0.0 2.0 0.00 0.00 0.00 85 1020.5
20260508163808 63 97 0.0 0.0 0.00 0.00 0.00 85 1020.6
20260508163305 63 215 0.0 0.0 0.00 0.00 0.00 86 1020.5
20260508162800 63 215 0.0 2.0 0.00 0.00 0.00 86 1020.4
20260508162257 63 270 0.0 3.0 0.00 0.00 0.00 86 1020.6
20260508161754 63 109 2.0 3.0 0.00 0.00 0.00 86 1020.4
20260508161251 63 261 0.0 2.0 0.00 0.00 0.00 86 1020.5
20260508160749 63 213 2.0 2.0 0.00 0.00 0.00 86 1020.5
20260508160248 63 212 3.0 3.0 0.00 0.00 0.00 86 1020.5
20260508155744 63 243 0.0 1.0 0.00 0.00 0.00 86 1020.4
20260508155241 63 240 0.0 2.0 0.00 0.00 0.00 87 1020.4
20260508154737 63 216 0.0 0.0 0.00 0.00 0.00 87 1020.5
20260508154235 63 233 2.0 2.0 0.00 0.00 0.00 88 1020.4
20260508153731 63 294 0.0 0.0 0.00 0.00 0.00 88 1020.5
20260508153229 62 294 0.0 0.0 0.00 0.00 0.00 88 1020.6
20260508152725 63 270 0.0 0.0 0.00 0.00 0.00 88 1020.4
20260508152221 63 215 1.0 2.0 0.00 0.00 0.00 88 1020.5
20260508151718 63 262 0.0 1.0 0.00 0.00 0.00 89 1020.6
20260508151214 62 123 2.0 2.0 0.00 0.00 0.00 89 1020.6
20260508150711 62 103 0.0 2.0 0.00 0.00 0.00 89 1020.6
20260508150208 62 248 0.0 2.0 0.00 0.00 0.00 89 1020.7
20260508145703 62 270 0.0 0.0 0.00 0.00 0.00 89 1020.6
20260508145200 62 262 0.0 2.0 0.00 0.00 0.00 89 1020.7
20260508144658 62 254 0.0 1.0 0.00 0.00 0.00 89 1020.7
20260508144155 62 261 0.0 0.0 0.00 0.00 0.00 89 1020.7
20260508143653 62 255 0.0 0.0 0.00 0.00 0.00 89 1020.8
20260508143150 62 255 0.0 0.0 0.00 0.00 0.00 90 1020.7
20260508142645 62 236 0.0 0.0 0.00 0.00 0.00 89 1020.5
20260508142142 62 255 0.0 0.0 0.00 0.00 0.00 90 1020.6
20260508141639 62 255 0.0 1.0 0.00 0.00 0.00 90 1020.6
20260508141137 62 106 0.0 0.0 0.00 0.00 0.00 90 1020.3
20260508140634 62 106 0.0 1.0 0.00 0.00 0.00 90 1020.4
20260508140131 62 157 0.0 2.0 0.00 0.00 0.00 90 1020.2
20260508135626 62 270 0.0 1.0 0.00 0.00 0.00 90 1020.2
20260508135122 62 106 0.0 4.0 0.00 0.00 0.00 90 1020.2
20260508134619 62 157 0.0 1.0 0.00 0.00 0.00 90 1020.1
20260508134116 62 270 0.0 0.0 0.00 0.00 0.00 91 1020.2
20260508133613 62 81 0.0 0.0 0.00 0.00 0.00 91 1020.4
20260508133110 62 81 0.0 0.0 0.00 0.00 0.00 91 1020.4
20260508132608 62 81 0.0 0.0 0.00 0.00 0.00 91 1020.4
20260508132105 62 81 0.0 0.0 0.00 0.00 0.00 91 1020.2
20260508131600 62 81 0.0 0.0 0.00 0.00 0.00 91 1020.1
20260508131057 62 81 0.0 0.0 0.00 0.00 0.00 91 1020.1
20260508130554 62 81 0.0 0.0 0.00 0.00 0.00 91 1019.9
20260508130050 62 81 0.0 0.0 0.00 0.00 0.00 91 1019.9
20260508125546 62 96 2.0 2.0 0.00 0.00 0.00 91 1020.1
20260508125044 62 154 2.0 2.0 0.00 0.00 0.00 91 1019.8
20260508124542 62 151 0.0 3.0 0.00 0.00 0.00 90 1019.7
20260508124038 62 98 2.0 3.0 0.00 0.00 0.00 91 1019.9
20260508123537 62 90 0.0 0.0 0.00 0.00 0.00 91 1019.9
20260508123033 62 90 0.0 0.0 0.00 0.00 0.00 91 1020.0
20260508122530 62 90 0.0 1.0 0.00 0.00 0.00 90 1019.7
20260508122027 62 74 0.0 2.0 0.00 0.00 0.00 90 1019.7
20260508121526 62 270 0.0 0.0 0.00 0.00 0.00 90 1019.6
20260508121023 62 258 0.0 2.0 0.00 0.00 0.00 90 1019.7
20260508120520 62 241 0.0 2.0 0.00 0.00 0.00 90 1019.7
20260508120018 62 261 0.0 0.0 0.00 0.00 0.00 90 1019.8
20260508115516 62 203 0.0 2.0 0.00 0.00 0.00 90 1019.6
20260508115012 62 215 0.0 0.0 0.00 0.00 0.00 90 1019.6
20260508114509 62 215 1.0 2.0 0.00 0.00 0.00 90 1019.5
20260508114005 62 246 0.0 1.0 0.00 0.00 0.00 90 1019.7
20260508113503 62 90 0.0 2.0 0.00 0.00 0.00 90 1019.6
20260508113000 62 270 1.0 3.0 0.00 0.00 0.00 90 1019.4
20260508112457 62 220 0.0 0.0 0.00 0.00 0.00 90 1019.4
20260508111954 62 240 0.0 2.0 0.00 0.00 0.00 90 1019.6
20260508111450 62 99 0.0 0.0 0.00 0.00 0.00 90 1019.4
20260508110948 62 99 0.0 0.0 0.00 0.00 0.00 90 1019.5
20260508110445 62 99 0.0 0.0 0.00 0.00 0.00 90 1019.5
20260508105944 62 99 0.0 0.0 0.00 0.00 0.00 90 1019.4
20260508105441 62 263 0.0 1.0 0.00 0.00 0.00 90 1019.5
20260508104939 62 352 0.0 0.0 0.00 0.00 0.00 90 1019.5
20260508104436 62 246 0.0 0.0 0.00 0.00 0.00 90 1019.5
20260508103933 62 246 0.0 0.0 0.00 0.00 0.00 90 1019.5
20260508103430 62 246 0.0 0.0 0.00 0.00 0.00 90 1019.5
20260508102927 62 246 0.0 1.0 0.00 0.00 0.00 90 1019.7
20260508102425 62 270 0.0 0.0 0.00 0.00 0.00 90 1019.6
20260508101922 62 270 0.0 0.0 0.00 0.00 0.00 90 1019.7
20260508101420 62 270 0.0 0.0 0.00 0.00 0.00 90 1019.5
20260508100916 62 270 0.0 0.0 0.00 0.00 0.00 90 1019.5
20260508100416 62 100 0.0 0.0 0.00 0.00 0.00 90 1019.6
20260508095911 62 100 0.0 0.0 0.00 0.00 0.00 90 1019.7
20260508095409 62 100 0.0 0.0 0.00 0.00 0.00 90 1019.7
20260508094905 61 100 0.0 0.0 0.00 0.00 0.00 90 1019.6
20260508094402 62 101 0.0 2.0 0.00 0.00 0.00 90 1019.5
20260508093859 62 254 0.0 2.0 0.00 0.00 0.00 90 1019.6
20260508093357 62 261 0.0 0.0 0.00 0.00 0.00 90 1019.6
20260508092854 61 221 0.0 2.0 0.00 0.00 0.00 90 1019.8
20260508092352 61 254 1.0 2.0 0.00 0.00 0.00 91 1019.8
20260508091850 62 258 0.0 2.0 0.00 0.00 0.00 90 1019.6
20260508091346 61 270 0.0 0.0 0.00 0.00 0.00 90 1019.8
20260508090844 61 234 0.0 3.0 0.00 0.00 0.00 90 1019.9
20260508090342 62 180 0.0 2.0 0.00 0.00 0.00 90 1019.8
20260508085837 61 255 0.0 2.0 0.00 0.00 0.00 90 1020.0
20260508085334 61 261 0.0 0.0 0.00 0.00 0.00 90 1019.9
20260508084831 61 237 0.0 0.0 0.00 0.00 0.00 90 1019.9
20260508084328 61 246 0.0 2.0 0.00 0.00 0.00 90 1020.0
20260508083825 61 246 0.0 2.0 0.00 0.00 0.00 90 1020.1
20260508083323 61 254 0.0 0.0 0.00 0.00 0.00 91 1020.0
20260508082822 61 254 0.0 0.0 0.00 0.00 0.00 91 1020.1
20260508082320 61 254 0.0 0.0 0.00 0.00 0.00 91 1020.1
20260508081817 61 206 0.0 2.0 0.00 0.00 0.00 91 1020.2
20260508081314 61 257 0.0 1.0 0.00 0.00 0.00 91 1020.2
20260508080811 61 270 1.0 2.0 0.00 0.00 0.00 91 1020.4
20260508080309 61 285 0.0 0.0 0.00 0.00 0.00 92 1020.3
20260508075805 61 215 0.0 1.0 0.00 0.00 0.00 92 1020.2
20260508075307 61 229 0.0 2.0 0.00 0.00 0.00 93 1020.3
20260508074800 60 132 0.0 3.0 0.00 0.00 0.00 94 1020.2
20260508074257 60 99 0.0 0.0 0.00 0.00 0.00 94 1020.4
20260508073754 60 270 1.0 1.0 0.00 0.00 0.00 94 1020.4
20260508073252 60 203 2.0 2.0 0.00 0.00 0.00 94 1020.4
20260508072748 60 237 0.0 2.0 0.00 0.00 0.00 94 1020.6
20260508072245 60 90 0.0 0.0 0.00 0.00 0.00 95 1020.3
20260508071742 60 90 0.0 0.0 0.00 0.00 0.00 94 1020.5
20260508071240 60 90 0.0 1.0 0.00 0.00 0.00 94 1020.1
20260508070737 60 165 0.0 0.0 0.00 0.00 0.00 94 1020.4
20260508070236 60 114 0.0 2.0 0.00 0.00 0.00 94 1020.2
20260508065733 61 203 1.0 2.0 0.00 0.00 0.00 94 1020.1
20260508065231 61 109 0.0 0.0 0.00 0.00 0.00 94 1020.5
20260508064728 61 251 0.0 3.0 0.00 0.00 0.00 94 1020.4
20260508064226 61 263 0.0 0.0 0.00 0.00 0.00 93 1020.1
20260508063723 61 105 0.0 2.0 0.00 0.00 0.00 93 1020.1
20260508063221 61 215 0.0 4.0 0.00 0.00 0.00 93 1020.3
20260508062718 61 75 0.0 0.0 0.00 0.00 0.00 93 1020.2
20260508062216 61 120 0.0 3.0 0.00 0.00 0.00 93 1020.0
20260508061712 61 264 0.0 1.0 0.00 0.00 0.00 93 1020.0
20260508061210 62 165 0.0 2.0 0.00 0.00 0.00 93 1020.1
20260508060706 62 240 0.0 2.0 0.00 0.00 0.00 92 1020.0
20260508060204 62 262 0.0 2.0 0.00 0.00 0.00 92 1020.3
20260508055659 62 109 1.0 1.0 0.00 0.00 0.00 92 1020.1
20260508055156 62 110 0.0 2.0 0.00 0.00 0.00 92 1020.0
20260508054653 62 219 0.0 3.0 0.00 0.00 0.00 91 1020.2
20260508054151 62 90 0.0 3.0 0.00 0.00 0.00 91 1020.2
20260508053647 62 208 0.0 2.0 0.00 0.00 0.00 91 1020.2
20260508053145 62 68 0.0 2.0 0.00 0.00 0.00 91 1020.1
20260508052642 62 114 0.0 2.0 0.00 0.00 0.00 90 1020.0
20260508052139 62 124 0.0 3.0 0.00 0.00 0.00 90 1020.2
20260508051635 63 126 0.0 0.0 0.00 0.00 0.00 90 1020.1
20260508051130 63 84 0.0 2.0 0.00 0.00 0.00 90 1019.9
20260508050627 63 121 2.0 3.0 0.00 0.00 0.00 90 1020.2
20260508050125 63 103 0.0 2.0 0.00 0.00 0.00 89 1020.0
20260508045620 63 170 2.0 2.0 0.00 0.00 0.00 89 1020.1
20260508045119 63 105 0.0 2.0 0.00 0.00 0.00 88 1020.1
20260508044615 63 105 0.0 3.0 0.00 0.00 0.00 88 1019.8
20260508044111 64 161 0.0 2.0 0.00 0.00 0.00 88 1019.8
20260508043608 64 123 0.0 2.0 0.00 0.00 0.00 87 1019.8
20260508043106 64 117 0.0 2.0 0.00 0.00 0.00 86 1019.7
20260508042602 64 135 0.0 2.0 0.00 0.00 0.00 86 1019.7
20260508042100 64 262 0.0 1.0 0.00 0.00 0.00 86 1019.5
20260508041556 64 152 0.0 2.0 0.00 0.00 0.00 85 1019.4
20260508041052 65 151 0.0 2.0 0.00 0.00 0.00 84 1019.5
20260508040549 65 131 0.0 2.0 0.00 0.00 0.00 84 1019.1
20260508040047 64 131 0.0 0.0 0.00 0.00 0.00 85 1019.3
20260508035543 65 157 0.0 2.0 0.00 0.00 0.00 83 1019.3
20260508035041 66 340 0.0 0.0 0.00 0.00 0.00 82 1019.4
20260508034537 65 287 0.0 0.0 0.00 0.00 0.00 80 1019.2
20260508034035 66 337 1.0 1.0 0.00 0.00 0.00 80 1019.3
20260508033532 66 345 0.0 1.0 0.00 0.00 0.00 79 1019.0
20260508033031 66 251 1.0 3.0 0.00 0.00 0.00 79 1019.1
20260508032526 66 262 0.0 3.0 0.00 0.00 0.00 78 1018.7
20260508032024 67 263 0.0 3.0 0.00 0.00 0.00 78 1018.8
20260508031521 67 260 2.0 3.0 0.00 0.00 0.00 78 1018.7
20260508031017 67 279 0.0 3.0 0.00 0.00 0.00 76 1018.7
20260508030514 68 218 0.0 2.0 0.00 0.00 0.00 76 1018.5
20260508030012 68 261 2.0 3.0 0.00 0.00 0.00 75 1018.5
20260508025507 68 270 3.0 3.0 0.00 0.00 0.00 74 1018.4
20260508025005 68 270 0.0 2.0 0.00 0.00 0.00 72 1018.2
20260508024501 68 229 2.0 3.0 0.00 0.00 0.00 72 1018.2
20260508023958 69 264 3.0 4.0 0.00 0.00 0.00 71 1018.2
20260508023454 69 246 3.0 4.0 0.00 0.00 0.00 70 1017.9
20260508022952 70 206 0.0 5.0 0.00 0.00 0.00 69 1018.0
20260508022447 70 275 2.0 3.0 0.00 0.00 0.00 68 1017.8
20260508021944 71 249 3.0 5.0 0.00 0.00 0.00 67 1018.0
20260508021441 71 258 0.0 3.0 0.00 0.00 0.00 67 1017.7
20260508020936 72 299 2.0 3.0 0.00 0.00 0.00 65 1017.9
20260508020435 73 283 2.0 3.0 0.00 0.00 0.00 65 1017.9
20260508015931 73 246 0.0 1.0 0.00 0.00 0.00 64 1017.5
20260508015429 73 256 3.0 3.0 0.00 0.00 0.00 64 1017.7
20260508014925 73 283 0.0 6.0 0.00 0.00 0.00 65 1017.7
20260508014423 73 234 3.0 4.0 0.00 0.00 0.00 64 1017.6
20260508013918 73 265 2.0 3.0 0.00 0.00 0.00 65 1017.4
20260508013414 73 262 3.0 5.0 0.00 0.00 0.00 64 1017.7
20260508012912 74 306 1.0 2.0 0.00 0.00 0.00 65 1017.6
20260508012409 74 270 0.0 3.0 0.00 0.00 0.00 64 1017.7
20260508011907 74 250 3.0 3.0 0.00 0.00 0.00 65 1017.6
20260508011404 75 228 2.0 2.0 0.00 0.00 0.00 64 1017.7
20260508010901 75 261 0.0 3.0 0.00 0.00 0.00 63 1017.5
20260508010358 75 246 1.0 3.0 0.00 0.00 0.00 62 1017.6
20260508005855 77 217 2.0 4.0 0.00 0.00 0.00 62 1017.5
20260508005352 77 201 2.0 3.0 0.00 0.00 0.00 60 1017.5
20260508004848 76 212 2.0 3.0 0.00 0.00 0.00 61 1017.5
20260508004345 76 201 2.0 3.0 0.00 0.00 0.00 60 1017.2
20260508003841 78 208 3.0 3.0 0.00 0.00 0.00 57 1017.4
20260508003338 77 218 2.0 3.0 0.00 0.00 0.00 58 1017.4
20260508002836 77 249 1.0 3.0 0.00 0.00 0.00 58 1017.5
20260508002332 77 225 3.0 5.0 0.00 0.00 0.00 58 1017.5
20260508001828 76 283 0.0 5.0 0.00 0.00 0.00 60 1017.3
20260508001324 77 216 0.0 4.0 0.00 0.00 0.00 58 1017.2
20260508000821 76 12 0.0 2.0 0.00 0.00 0.00 58 1017.3
20260508000319 77 188 2.0 5.0 0.00 0.00 0.00 58 1017.4
20260507235814 77 257 2.0 5.0 0.00 0.00 0.00 58 1017.4
20260507235312 77 114 0.0 2.0 0.00 0.00 0.00 58 1017.4